Tracking 21094 objects as of 14-Aug-2020
HD Live streaming from Space Station
objects crossing your sky now
Track the most recent launched group of Starlink satellites

ARIANE 1 DEB

Track ARIANE 1 DEB now!
10-day predictions


NORAD ID: 40780
Int'l Code: 1979-104AH
Perigee: 485.8 km
Apogee: 20,906.5 km
Inclination: 19.0 °
Period: 369.8 minutes
Semi major axis: 17067 km
RCS: Unknown
Launch date: December 24, 1979
Source: European Space Agency (ESA)
Launch site: FRENCH GUIANA (FRGUI)

Note: This is SATELLITE DEBRIS
aabbcc
Your satellite tracking list
Your tracking list is empty




NASA's NSSDC Master Catalog

Two Line Element Set (TLE):
1 40780U 79104AH  20226.62661526 -.00000192  00000-0 -50115-4 0  9996
2 40780  18.9971   8.4896 5982456 115.6408 316.4476  3.89369167247562
Source of the keplerian elements: AFSPC